Weather History for Tacoma Narrows, WA

Change the Weather History Date:

Saturday, December 15, 2012

  Actual Average Record
Temperature  
Mean Temperature 36 °F -  
Max Temperature 41 °F 44 °F 52 °F (2002)
Min Temperature 32 °F 37 °F 25 °F (2008)
Degree Days  
Heating Degree Days 28    
Moisture  
Dew Point 33 °F    
Average Humidity 83    
Maximum Humidity 92    
Minimum Humidity 73    
Precipitation  
Precipitation 0.14 in - - ()
Sea Level Pressure  
Sea Level Pressure 29.69 in    
Wind  
Wind Speed 7 mph (South)    
Max Wind Speed 21 mph    
Max Gust Speed 30 mph    
Visibility 9 miles    
Events Rain    
Averages and records for this station are not official NWS values.
T = Trace of Precipitation, MM = Missing Value Source: NWS Daily Summary

Daily Weather History Graph

Daily Weather History Graph

Search for Another Location

Airport:

Trip Planner

Search our weather history database for the weather conditions in past years. The results will help you decide how hot, cold, wet, or windy it might be!

Date:

Astronomy

Dec. 15, 2012 Rise Set
Actual Time 7:50 AM PST 4:20 PM PST
Civil Twilight 7:15 AM PST 4:56 PM PST
Nautical Twilight 6:36 AM PST 5:35 PM PST
Astronomical Twilight 5:58 AM PST 6:12 PM PST
Moon 9:39 AM PST (12/15) 7:40 PM PST (12/15)
Length of Visible Light 9h 41m
Length of Day
8h 29m
Waxing Crescent, 9% of the Moon is Illuminated
Dec 15
Waxing Crescent
Dec 19
First Quarter
Dec 28
Full
Jan 4
Last Quarter
Jan 11
New

Hourly Weather History & Observations

Time (PST) Temp. Windchill Dew Point Humidity Pressure Visibility Wind Dir Wind Speed Gust Speed Precip Events Conditions
12:53 AM 35.1 °F - 30.9 °F 85% 29.91 in 10.0 mi Calm Calm - N/A   Clear
1:53 AM 32.0 °F 28.7 °F 30.0 °F 92% 29.89 in 10.0 mi SSW 3.5 mph - N/A   Clear
2:53 AM 34.0 °F 31.0 °F 32.0 °F 92% 29.90 in 10.0 mi WSW 3.5 mph - N/A   Mostly Cloudy
3:53 AM 37.0 °F 33.3 °F 33.1 °F 86% 29.86 in 10.0 mi SSE 4.6 mph - N/A   Scattered Clouds
4:53 AM 37.0 °F 32.4 °F 30.9 °F 79% 29.83 in 10.0 mi SE 5.8 mph - N/A   Overcast
5:53 AM 37.0 °F 31.6 °F 30.0 °F 76% 29.81 in 10.0 mi SSE 6.9 mph - N/A   Overcast
6:53 AM 37.9 °F 32.7 °F 30.0 °F 73% 29.79 in 10.0 mi SSW 6.9 mph - N/A   Overcast
7:53 AM 37.9 °F 30.9 °F 32.0 °F 79% 29.78 in 10.0 mi South 10.4 mph - 0.00 in Rain Light Rain
8:53 AM 39.9 °F 34.5 °F 32.0 °F 73% 29.74 in 10.0 mi SSE 8.1 mph - 0.00 in   Overcast
9:53 AM 39.0 °F 32.3 °F 32.0 °F 76% 29.72 in 7.0 mi SSE 10.4 mph 21.9 mph 0.02 in Rain Light Rain
10:53 AM 39.0 °F 33.4 °F 33.1 °F 79% 29.68 in 7.0 mi SSE 8.1 mph - 0.01 in   Overcast
11:53 AM 39.9 °F 37.8 °F 33.1 °F 77% 29.62 in 10.0 mi SSE 3.5 mph - N/A   Overcast
12:53 PM 39.0 °F 36.8 °F 35.1 °F 86% 29.57 in 8.0 mi WNW 3.5 mph - 0.02 in Rain Light Rain
1:20 PM 39.2 °F 37.0 °F 35.6 °F 87% 29.55 in 2.0 mi Variable 3.5 mph - 0.04 in Rain Rain
1:25 PM 39.2 °F 37.0 °F 33.8 °F 81% 29.55 in 3.0 mi Variable 3.5 mph - 0.06 in Rain Light Rain
1:53 PM 39.0 °F 36.8 °F 35.1 °F 86% 29.55 in 4.0 mi North 3.5 mph - 0.07 in Rain Light Rain
2:53 PM 39.9 °F 36.7 °F 36.0 °F 86% 29.55 in 10.0 mi SW 4.6 mph - 0.02 in Rain Light Rain
3:53 PM 41.0 °F 31.9 °F 35.1 °F 79% 29.57 in 10.0 mi South 19.6 mph 28.8 mph 0.00 in Rain Light Rain
4:53 PM 39.9 °F 30.2 °F 35.1 °F 83% 29.57 in 10.0 mi South 20.7 mph 26.5 mph 0.00 in   Overcast
5:53 PM 39.0 °F 29.6 °F 34.0 °F 82% 29.60 in 10.0 mi South 18.4 mph 26.5 mph N/A   Overcast
6:53 PM 39.0 °F 29.6 °F 35.1 °F 86% 29.60 in 10.0 mi SSW 18.4 mph 28.8 mph N/A   Overcast
7:53 PM 37.9 °F 27.6 °F 34.0 °F 86% 29.61 in 10.0 mi South 20.7 mph 29.9 mph 0.00 in   Mostly Cloudy
8:36 PM 39.2 °F 30.5 °F 33.8 °F 81% 29.62 in 10.0 mi SSW 16.1 mph - N/A   Scattered Clouds
8:53 PM 39.0 °F 31.0 °F 34.0 °F 82% 29.64 in 10.0 mi SSW 13.8 mph 23.0 mph N/A   Clear
9:44 PM 39.2 °F 31.6 °F 35.6 °F 87% 29.65 in 10.0 mi SSW 12.7 mph 24.2 mph N/A   Mostly Cloudy
9:53 PM 39.0 °F 31.8 °F 34.0 °F 82% 29.67 in 10.0 mi SSW 11.5 mph 21.9 mph N/A   Mostly Cloudy
10:39 PM 37.4 °F 29.3 °F 33.8 °F 87% 29.68 in 10.0 mi SSW 12.7 mph 21.9 mph N/A   Partly Cloudy
10:53 PM 37.9 °F 30.0 °F 34.0 °F 86% 29.70 in 10.0 mi SSW 12.7 mph 20.7 mph N/A   Partly Cloudy
11:53 PM 37.9 °F 29.6 °F 34.0 °F 86% 29.72 in 10.0 mi SSW 13.8 mph - N/A   Mostly Cloudy